Year,Month,Day,Hour,Minute,Value (Times are PST for temperature in C)
2009,02,20,00,00,-0.20
2009,02,20,00,01,-0.20
2009,02,20,00,02,-0.20
2009,02,20,00,03,-0.20
2009,02,20,00,04,-0.20
2009,02,20,00,05,-0.20
2009,02,20,00,06,-0.20
2009,02,20,00,07,-0.10
2009,02,20,00,08,-0.10
2009,02,20,00,09,-0.10
2009,02,20,00,10,0.00
2009,02,20,00,11,0.10
2009,02,20,00,12,0.10
2009,02,20,00,13,0.00
2009,02,20,00,14,-0.10
2009,02,20,00,15,-0.10
2009,02,20,00,16,-0.10
2009,02,20,00,17,-0.10
2009,02,20,00,18,-0.10
2009,02,20,00,19,-0.10
2009,02,20,00,20,-0.10
2009,02,20,00,21,-0.10
2009,02,20,00,22,-0.10
2009,02,20,00,23,-0.10
2009,02,20,00,24,-0.10
2009,02,20,00,25,-0.10
2009,02,20,00,26,-0.10
2009,02,20,00,27,-0.20
2009,02,20,00,28,-0.20
2009,02,20,00,29,-0.20
2009,02,20,00,30,-0.20
2009,02,20,00,31,-0.30
2009,02,20,00,32,-0.30
2009,02,20,00,33,-0.30
2009,02,20,00,34,-0.30
2009,02,20,00,35,-0.30
2009,02,20,00,36,-0.40
2009,02,20,00,37,-0.40
2009,02,20,00,38,-0.40
2009,02,20,00,39,-0.40
2009,02,20,00,40,-0.40
2009,02,20,00,41,-0.40
2009,02,20,00,42,-0.40
2009,02,20,00,43,-0.40
2009,02,20,00,44,-0.40
2009,02,20,00,45,-0.40
2009,02,20,00,46,-0.40
2009,02,20,00,47,-0.40
2009,02,20,00,48,-0.40
2009,02,20,00,49,-0.40
2009,02,20,00,50,-0.40
2009,02,20,00,51,-0.40
2009,02,20,00,52,-0.40
2009,02,20,00,53,-0.50
2009,02,20,00,54,-0.60
2009,02,20,00,55,-0.60
2009,02,20,00,56,-0.60
2009,02,20,00,57,-0.60
2009,02,20,00,58,-0.60
2009,02,20,00,59,-0.60
2009,02,20,01,00,-0.60
2009,02,20,01,01,-0.60
2009,02,20,01,02,-0.60
2009,02,20,01,03,-0.60
2009,02,20,01,04,-0.60
2009,02,20,01,05,-0.60
2009,02,20,01,06,-0.60
2009,02,20,01,07,-0.70
2009,02,20,01,08,-0.70
2009,02,20,01,09,-0.70
2009,02,20,01,10,-0.70
2009,02,20,01,11,-0.70
2009,02,20,01,12,-0.80
2009,02,20,01,13,-0.80
2009,02,20,01,14,-0.80
2009,02,20,01,15,-0.80
2009,02,20,01,16,-0.80
2009,02,20,01,17,-0.80
2009,02,20,01,18,-0.70
2009,02,20,01,19,-0.70
2009,02,20,01,20,-0.60
2009,02,20,01,21,-0.60
2009,02,20,01,22,-0.50
2009,02,20,01,23,-0.40
2009,02,20,01,24,-0.30
2009,02,20,01,25,-0.30
2009,02,20,01,26,-0.20
2009,02,20,01,27,-0.20
2009,02,20,01,28,-0.10
2009,02,20,01,29,-0.10
2009,02,20,01,30,-0.10
2009,02,20,01,31,-0.10
2009,02,20,01,32,-0.10
2009,02,20,01,33,0.00
2009,02,20,01,34,0.10
2009,02,20,01,35,0.10
2009,02,20,01,36,0.20
2009,02,20,01,37,0.30
2009,02,20,01,38,0.40
2009,02,20,01,39,0.50
2009,02,20,01,40,0.60
2009,02,20,01,41,0.70
2009,02,20,01,42,0.90
2009,02,20,01,43,1.00
2009,02,20,01,44,1.20
2009,02,20,01,45,1.30
2009,02,20,01,46,1.50
2009,02,20,01,47,1.60
2009,02,20,01,48,1.70
2009,02,20,01,49,1.80
2009,02,20,01,50,1.90
2009,02,20,01,51,2.00
2009,02,20,01,52,2.10
2009,02,20,01,53,2.20
2009,02,20,01,54,2.30
2009,02,20,01,55,2.40
2009,02,20,01,56,2.50
2009,02,20,01,57,2.50
2009,02,20,01,58,2.60
2009,02,20,01,59,2.70
2009,02,20,02,00,2.80
2009,02,20,02,01,3.00
2009,02,20,02,02,3.10
2009,02,20,02,03,3.10
2009,02,20,02,04,3.10
2009,02,20,02,05,3.00
2009,02,20,02,06,2.90
2009,02,20,02,07,2.90
2009,02,20,02,08,2.90
2009,02,20,02,09,2.90
2009,02,20,02,10,2.90
2009,02,20,02,11,2.90
2009,02,20,02,12,2.90
2009,02,20,02,13,2.90
2009,02,20,02,14,2.90
2009,02,20,02,15,2.90
2009,02,20,02,16,2.90
2009,02,20,02,17,2.90
2009,02,20,02,18,2.90
2009,02,20,02,19,2.90
2009,02,20,02,20,2.90
2009,02,20,02,21,2.90
2009,02,20,02,22,2.90
2009,02,20,02,23,2.90
2009,02,20,02,24,2.90
2009,02,20,02,25,2.90
2009,02,20,02,26,2.90
2009,02,20,02,27,2.90
2009,02,20,02,28,2.90
2009,02,20,02,29,2.90
2009,02,20,02,30,2.90
2009,02,20,02,31,2.90
2009,02,20,02,32,2.90
2009,02,20,02,33,2.90
2009,02,20,02,34,2.90
2009,02,20,02,35,2.90
2009,02,20,02,36,2.90
2009,02,20,02,37,2.90
2009,02,20,02,38,2.90
2009,02,20,02,39,2.90
2009,02,20,02,40,2.80
2009,02,20,02,41,2.80
2009,02,20,02,42,2.80
2009,02,20,02,43,2.70
2009,02,20,02,44,2.70
2009,02,20,02,45,2.70
2009,02,20,02,46,2.70
2009,02,20,02,47,2.60
2009,02,20,02,48,2.60
2009,02,20,02,49,2.50
2009,02,20,02,50,2.50
2009,02,20,02,51,2.50
2009,02,20,02,52,2.40
2009,02,20,02,53,2.40
2009,02,20,02,54,2.30
2009,02,20,02,55,2.30
2009,02,20,02,56,2.30
2009,02,20,02,57,2.20
2009,02,20,02,58,2.10
2009,02,20,02,59,2.00
2009,02,20,03,00,1.80
2009,02,20,03,01,1.70
2009,02,20,03,02,1.60
2009,02,20,03,03,1.50
2009,02,20,03,04,1.40
2009,02,20,03,05,1.40
2009,02,20,03,06,1.40
2009,02,20,03,07,1.30
2009,02,20,03,08,1.30
2009,02,20,03,09,1.30
2009,02,20,03,10,1.30
2009,02,20,03,11,1.30
2009,02,20,03,12,1.30
2009,02,20,03,13,1.20
2009,02,20,03,14,1.10
2009,02,20,03,15,1.00
2009,02,20,03,16,1.00
2009,02,20,03,17,0.90
2009,02,20,03,18,0.90
2009,02,20,03,19,0.80
2009,02,20,03,20,0.80
2009,02,20,03,21,0.80
2009,02,20,03,22,0.70
2009,02,20,03,23,0.70
2009,02,20,03,24,0.60
2009,02,20,03,25,0.60
2009,02,20,03,26,0.50
2009,02,20,03,27,0.50
2009,02,20,03,28,0.40
2009,02,20,03,29,0.40
2009,02,20,03,30,0.40
2009,02,20,03,31,0.40
2009,02,20,03,32,0.30
2009,02,20,03,33,0.30
2009,02,20,03,34,0.30
2009,02,20,03,35,0.30
2009,02,20,03,36,0.20
2009,02,20,03,37,0.20
2009,02,20,03,38,0.10
2009,02,20,03,39,0.10
2009,02,20,03,40,0.10
2009,02,20,03,41,0.10
2009,02,20,03,42,0.10
2009,02,20,03,43,0.00
2009,02,20,03,44,-0.10
2009,02,20,03,45,-0.10
2009,02,20,03,46,-0.10
2009,02,20,03,47,-0.10
2009,02,20,03,48,-0.10
2009,02,20,03,49,-0.10
2009,02,20,03,50,-0.20
2009,02,20,03,51,-0.20
2009,02,20,03,52,-0.20
2009,02,20,03,53,-0.30
2009,02,20,03,54,-0.30
2009,02,20,03,55,-0.30
2009,02,20,03,56,-0.30
2009,02,20,03,57,-0.30
2009,02,20,03,58,-0.30
2009,02,20,03,59,-0.30
2009,02,20,04,00,-0.30
2009,02,20,04,01,-0.30
2009,02,20,04,02,-0.30
2009,02,20,04,03,-0.30
2009,02,20,04,04,-0.30
2009,02,20,04,05,-0.30
2009,02,20,04,06,-0.30
2009,02,20,04,07,-0.30
2009,02,20,04,08,-0.30
2009,02,20,04,09,-0.20
2009,02,20,04,10,-0.20
2009,02,20,04,11,-0.20
2009,02,20,04,12,-0.10
2009,02,20,04,13,-0.10
2009,02,20,04,14,-0.10
2009,02,20,04,15,-0.10
2009,02,20,04,16,-0.10
2009,02,20,04,17,-0.10
2009,02,20,04,18,-0.10
2009,02,20,04,19,-0.10
2009,02,20,04,20,-0.10
2009,02,20,04,21,-0.10
2009,02,20,04,22,0.00
2009,02,20,04,23,0.10
2009,02,20,04,24,0.10
2009,02,20,04,25,0.20
2009,02,20,04,26,0.30
2009,02,20,04,27,0.40
2009,02,20,04,28,0.50
2009,02,20,04,29,0.60
2009,02,20,04,30,0.70
2009,02,20,04,31,0.70
2009,02,20,04,32,0.80
2009,02,20,04,33,0.80
2009,02,20,04,34,0.90
2009,02,20,04,35,0.90
2009,02,20,04,36,0.90
2009,02,20,04,37,0.90
2009,02,20,04,38,0.90
2009,02,20,04,39,0.90
2009,02,20,04,40,0.90
2009,02,20,04,41,0.90
2009,02,20,04,42,0.90
2009,02,20,04,43,0.90
2009,02,20,04,44,0.90
2009,02,20,04,45,0.90
2009,02,20,04,46,0.90
2009,02,20,04,47,0.90
2009,02,20,04,48,0.90
2009,02,20,04,49,0.90
2009,02,20,04,50,0.90
2009,02,20,04,51,0.90
2009,02,20,04,52,0.90
2009,02,20,04,53,0.90
2009,02,20,04,54,0.90
2009,02,20,04,55,1.00
2009,02,20,04,56,1.00
2009,02,20,04,57,1.10
2009,02,20,04,58,1.10
2009,02,20,04,59,1.10
2009,02,20,05,00,1.20
2009,02,20,05,01,1.20
2009,02,20,05,02,1.30
2009,02,20,05,03,1.30
2009,02,20,05,04,1.30
2009,02,20,05,05,1.30
2009,02,20,05,06,1.30
2009,02,20,05,07,1.30
2009,02,20,05,08,1.30
2009,02,20,05,09,1.40
2009,02,20,05,10,1.40
2009,02,20,05,11,1.40
2009,02,20,05,12,1.50
2009,02,20,05,13,1.50
2009,02,20,05,14,1.50
2009,02,20,05,15,1.50
2009,02,20,05,16,1.50
2009,02,20,05,17,1.50
2009,02,20,05,18,1.60
2009,02,20,05,19,1.60
2009,02,20,05,20,1.60
2009,02,20,05,21,1.60
2009,02,20,05,22,1.60
2009,02,20,05,23,1.60
2009,02,20,05,24,1.60
2009,02,20,05,25,1.70
2009,02,20,05,26,1.70
2009,02,20,05,27,1.80
2009,02,20,05,28,1.80
2009,02,20,05,29,1.80
2009,02,20,05,30,1.80
2009,02,20,05,31,1.80
2009,02,20,05,32,1.80
2009,02,20,05,33,1.80
2009,02,20,05,34,1.90
2009,02,20,05,35,1.90
2009,02,20,05,36,1.90
2009,02,20,05,37,1.90
2009,02,20,05,38,1.90
2009,02,20,05,39,1.90
2009,02,20,05,40,1.90
2009,02,20,05,41,1.90
2009,02,20,05,42,1.90
2009,02,20,05,43,1.90
2009,02,20,05,44,1.90
2009,02,20,05,45,1.90
2009,02,20,05,46,1.90
2009,02,20,05,47,1.90
2009,02,20,05,48,1.90
2009,02,20,05,49,1.90
2009,02,20,05,50,1.90
2009,02,20,05,51,1.80
2009,02,20,05,52,1.80
2009,02,20,05,53,1.80
2009,02,20,05,54,1.80
2009,02,20,05,55,1.80
2009,02,20,05,56,1.80
2009,02,20,05,57,1.80
2009,02,20,05,58,1.80
2009,02,20,05,59,1.80
2009,02,20,06,00,1.80
2009,02,20,06,01,1.70
2009,02,20,06,02,1.60
2009,02,20,06,03,1.50
2009,02,20,06,04,1.40
2009,02,20,06,05,1.30
2009,02,20,06,06,1.20
2009,02,20,06,07,1.20
2009,02,20,06,08,1.10
2009,02,20,06,09,1.00
2009,02,20,06,10,1.00
2009,02,20,06,11,0.90
2009,02,20,06,12,0.90
2009,02,20,06,13,0.90
2009,02,20,06,14,0.90
2009,02,20,06,15,0.90
2009,02,20,06,16,0.80
2009,02,20,06,17,0.80
2009,02,20,06,18,0.80
2009,02,20,06,19,0.80
2009,02,20,06,20,0.80
2009,02,20,06,21,0.80
2009,02,20,06,22,0.80
2009,02,20,06,23,0.80
2009,02,20,06,24,0.80
2009,02,20,06,25,0.80
2009,02,20,06,26,0.80
2009,02,20,06,27,0.80
2009,02,20,06,28,0.80
2009,02,20,06,29,0.80
2009,02,20,06,30,0.80
2009,02,20,06,31,0.80
2009,02,20,06,32,0.80
2009,02,20,06,33,0.80
2009,02,20,06,34,0.80
2009,02,20,06,35,0.80
2009,02,20,06,36,0.80
2009,02,20,06,37,0.80
2009,02,20,06,38,0.80
2009,02,20,06,39,0.80
2009,02,20,06,40,0.80
2009,02,20,06,41,0.80
2009,02,20,06,42,0.80
2009,02,20,06,43,0.90
2009,02,20,06,44,1.00
2009,02,20,06,45,1.00
2009,02,20,06,46,1.10
2009,02,20,06,47,1.10
2009,02,20,06,48,1.20
2009,02,20,06,49,1.20
2009,02,20,06,50,1.20
2009,02,20,06,51,1.20
2009,02,20,06,52,1.30
2009,02,20,06,53,1.30
2009,02,20,06,54,1.40
2009,02,20,06,55,1.50
2009,02,20,06,56,1.70
2009,02,20,06,57,1.80
2009,02,20,06,58,1.80
2009,02,20,06,59,1.70
2009,02,20,07,00,1.60
2009,02,20,07,01,1.60
2009,02,20,07,02,1.70
2009,02,20,07,03,1.80
2009,02,20,07,04,1.80
2009,02,20,07,05,1.90
2009,02,20,07,06,2.00
2009,02,20,07,07,2.00
2009,02,20,07,08,2.10
2009,02,20,07,09,2.20
2009,02,20,07,10,2.30
2009,02,20,07,11,2.30
2009,02,20,07,12,2.40
2009,02,20,07,13,2.50
2009,02,20,07,14,2.50
2009,02,20,07,15,2.50
2009,02,20,07,16,2.60
2009,02,20,07,17,2.70
2009,02,20,07,18,2.70
2009,02,20,07,19,2.80
2009,02,20,07,20,2.90
2009,02,20,07,21,2.90
2009,02,20,07,22,2.90
2009,02,20,07,23,2.90
2009,02,20,07,24,2.90
2009,02,20,07,25,2.90
2009,02,20,07,26,2.90
2009,02,20,07,27,2.90
2009,02,20,07,28,3.00
2009,02,20,07,29,3.10
2009,02,20,07,30,3.20
2009,02,20,07,31,3.20
2009,02,20,07,32,3.20
2009,02,20,07,33,3.20
2009,02,20,07,34,3.30
2009,02,20,07,35,3.30
2009,02,20,07,36,3.30
2009,02,20,07,37,3.30
2009,02,20,07,38,3.20
2009,02,20,07,39,3.00
2009,02,20,07,40,2.80
2009,02,20,07,41,2.60
2009,02,20,07,42,2.30
2009,02,20,07,43,2.20
2009,02,20,07,44,2.00
2009,02,20,07,45,1.90
2009,02,20,07,46,1.80
2009,02,20,07,47,1.80
2009,02,20,07,48,1.80
2009,02,20,07,49,1.80
2009,02,20,07,50,1.90
2009,02,20,07,51,2.00
2009,02,20,07,52,2.10
2009,02,20,07,53,2.20
2009,02,20,07,54,2.40
2009,02,20,07,55,2.60
2009,02,20,07,56,2.70
2009,02,20,07,57,2.80
2009,02,20,07,58,2.90
2009,02,20,07,59,3.10
2009,02,20,08,00,3.30
2009,02,20,08,01,3.50
2009,02,20,08,02,3.70
2009,02,20,08,03,3.80
2009,02,20,08,04,3.90
2009,02,20,08,05,4.00
2009,02,20,08,06,4.00
2009,02,20,08,07,4.00
2009,02,20,08,08,4.10
2009,02,20,08,09,4.00
2009,02,20,08,10,4.00
2009,02,20,08,11,3.90
2009,02,20,08,12,4.00
2009,02,20,08,13,4.00
2009,02,20,08,14,4.00
2009,02,20,08,15,4.20
2009,02,20,08,16,4.20
2009,02,20,08,17,4.40
2009,02,20,08,18,4.50
2009,02,20,08,19,4.60
2009,02,20,08,20,4.70
2009,02,20,08,21,4.80
2009,02,20,08,22,4.90
2009,02,20,08,23,4.90
2009,02,20,08,24,5.00
2009,02,20,08,25,5.10
2009,02,20,08,26,5.10
2009,02,20,08,27,5.10
2009,02,20,08,28,5.10
2009,02,20,08,29,5.20
2009,02,20,08,30,5.30
2009,02,20,08,31,5.30
2009,02,20,08,32,5.40
2009,02,20,08,33,5.50
2009,02,20,08,34,5.50
2009,02,20,08,35,5.60
2009,02,20,08,36,5.60
2009,02,20,08,37,5.50
2009,02,20,08,38,5.60
2009,02,20,08,39,5.60
2009,02,20,08,40,5.70
2009,02,20,08,41,5.80
2009,02,20,08,42,5.80
2009,02,20,08,43,5.80
2009,02,20,08,44,5.90
2009,02,20,08,45,5.90
2009,02,20,08,46,5.90
2009,02,20,08,47,5.90
2009,02,20,08,48,5.90
2009,02,20,08,49,6.00
2009,02,20,08,50,6.00
2009,02,20,08,51,6.00
2009,02,20,08,52,6.10
2009,02,20,08,53,6.10
2009,02,20,08,54,6.10
2009,02,20,08,55,6.10
2009,02,20,08,56,6.20
2009,02,20,08,57,6.20
2009,02,20,08,58,6.20
2009,02,20,08,59,6.20
2009,02,20,09,00,6.30
2009,02,20,09,01,6.30
2009,02,20,09,02,6.40
2009,02,20,09,03,6.30
2009,02,20,09,04,6.30
2009,02,20,09,05,6.30
2009,02,20,09,06,6.30
2009,02,20,09,07,6.30
2009,02,20,09,08,6.40
2009,02,20,09,09,6.40
2009,02,20,09,10,6.30
2009,02,20,09,11,6.30
2009,02,20,09,12,6.30
2009,02,20,09,13,6.30
2009,02,20,09,14,6.30
2009,02,20,09,15,6.20
2009,02,20,09,16,6.20
2009,02,20,09,17,6.20
2009,02,20,09,18,6.20
2009,02,20,09,19,6.20
2009,02,20,09,20,6.20
2009,02,20,09,21,6.20
2009,02,20,09,22,6.20
2009,02,20,09,23,6.30
2009,02,20,09,24,6.40
2009,02,20,09,25,6.40
2009,02,20,09,26,6.40
2009,02,20,09,27,6.40
2009,02,20,09,28,6.40
2009,02,20,09,29,6.60
2009,02,20,09,30,6.60
2009,02,20,09,31,6.60
2009,02,20,09,32,6.60
2009,02,20,09,33,6.70
2009,02,20,09,34,6.70
2009,02,20,09,35,6.80
2009,02,20,09,36,6.80
2009,02,20,09,37,6.70
2009,02,20,09,38,6.70
2009,02,20,09,39,6.70
2009,02,20,09,40,6.70
2009,02,20,09,41,6.70
2009,02,20,09,42,6.80
2009,02,20,09,43,6.90
2009,02,20,09,44,7.00
2009,02,20,09,45,7.00
2009,02,20,09,46,7.10
2009,02,20,09,47,7.00
2009,02,20,09,48,7.00
2009,02,20,09,49,7.00
2009,02,20,09,50,7.00
2009,02,20,09,51,6.90
2009,02,20,09,52,6.90
2009,02,20,09,53,6.80
2009,02,20,09,54,6.80
2009,02,20,09,55,6.80
2009,02,20,09,56,6.70
2009,02,20,09,57,6.70
2009,02,20,09,58,6.60
2009,02,20,09,59,6.60
2009,02,20,10,00,6.60
2009,02,20,10,01,6.60
2009,02,20,10,02,6.60
2009,02,20,10,03,6.60
2009,02,20,10,04,6.60
2009,02,20,10,05,6.60
2009,02,20,10,06,6.70
2009,02,20,10,07,6.70
2009,02,20,10,08,6.70
2009,02,20,10,09,6.80
2009,02,20,10,10,6.80
2009,02,20,10,11,6.80
2009,02,20,10,12,6.80
2009,02,20,10,13,7.00
2009,02,20,10,14,7.00
2009,02,20,10,15,7.10
2009,02,20,10,16,7.10
2009,02,20,10,17,7.10
2009,02,20,10,18,7.10
2009,02,20,10,19,7.20
2009,02,20,10,20,7.20
2009,02,20,10,21,7.30
2009,02,20,10,22,7.30
2009,02,20,10,23,7.30
2009,02,20,10,24,7.30
2009,02,20,10,25,7.30
2009,02,20,10,26,7.30
2009,02,20,10,27,7.30
2009,02,20,10,28,7.30
2009,02,20,10,29,7.30
2009,02,20,10,30,7.30
2009,02,20,10,31,7.30
2009,02,20,10,32,7.20
2009,02,20,10,33,7.10
2009,02,20,10,34,7.20
2009,02,20,10,35,7.20
2009,02,20,10,36,7.20
2009,02,20,10,37,7.30
2009,02,20,10,38,7.30
2009,02,20,10,39,7.30
2009,02,20,10,40,7.30
2009,02,20,10,41,7.30
2009,02,20,10,42,7.30
2009,02,20,10,43,7.30
2009,02,20,10,44,7.30
2009,02,20,10,45,7.30
2009,02,20,10,46,7.40
2009,02,20,10,47,7.40
2009,02,20,10,48,7.40
2009,02,20,10,49,7.50
2009,02,20,10,50,7.40
2009,02,20,10,51,7.50
2009,02,20,10,52,7.50
2009,02,20,10,53,7.40
2009,02,20,10,54,7.40
2009,02,20,10,55,7.30
2009,02,20,10,56,7.30
2009,02,20,10,57,7.30
2009,02,20,10,58,7.30
2009,02,20,10,59,7.30
2009,02,20,11,00,7.40
2009,02,20,11,01,7.40
2009,02,20,11,02,7.40
2009,02,20,11,03,7.50
2009,02,20,11,04,7.60
2009,02,20,11,05,7.70
2009,02,20,11,06,7.80
2009,02,20,11,07,7.80
2009,02,20,11,08,7.70
2009,02,20,11,09,7.70
2009,02,20,11,10,7.70
2009,02,20,11,11,7.70
2009,02,20,11,12,7.70
2009,02,20,11,13,7.70
2009,02,20,11,14,7.80
2009,02,20,11,15,7.80
2009,02,20,11,16,7.80
2009,02,20,11,17,7.80
2009,02,20,11,18,7.80
2009,02,20,11,19,7.90
2009,02,20,11,20,7.90
2009,02,20,11,21,8.00
2009,02,20,11,22,8.00
2009,02,20,11,23,8.10
2009,02,20,11,24,8.20
2009,02,20,11,25,8.20
2009,02,20,11,26,8.20
2009,02,20,11,27,8.20
2009,02,20,11,28,8.20
2009,02,20,11,29,8.20
2009,02,20,11,30,8.20
2009,02,20,11,31,8.30
2009,02,20,11,32,8.30
2009,02,20,11,33,8.30
2009,02,20,11,34,8.20
2009,02,20,11,35,8.20
2009,02,20,11,36,8.20
2009,02,20,11,37,8.20
2009,02,20,11,38,8.20
2009,02,20,11,39,8.30
2009,02,20,11,40,8.30
2009,02,20,11,41,8.30
2009,02,20,11,42,8.30
2009,02,20,11,43,8.30
2009,02,20,11,44,8.40
2009,02,20,11,45,8.40
2009,02,20,11,46,8.50
2009,02,20,11,47,8.60
2009,02,20,11,48,8.70
2009,02,20,11,49,8.70
2009,02,20,11,50,8.70
2009,02,20,11,51,8.70
2009,02,20,11,52,8.70
2009,02,20,11,53,8.70
2009,02,20,11,54,8.70
2009,02,20,11,55,8.60
2009,02,20,11,56,8.50
2009,02,20,11,57,8.50
2009,02,20,11,58,8.50
2009,02,20,11,59,8.50
2009,02,20,12,00,8.60
2009,02,20,12,01,8.70
2009,02,20,12,02,8.90
2009,02,20,12,03,9.10
2009,02,20,12,04,9.20
2009,02,20,12,05,9.20
2009,02,20,12,06,9.40
2009,02,20,12,07,9.40
2009,02,20,12,08,9.40
2009,02,20,12,09,9.30
2009,02,20,12,10,9.20
2009,02,20,12,11,9.20
2009,02,20,12,12,9.20
2009,02,20,12,13,9.20
2009,02,20,12,14,9.10
2009,02,20,12,15,9.00
2009,02,20,12,16,8.80
2009,02,20,12,17,8.80
2009,02,20,12,18,8.80
2009,02,20,12,19,9.00
2009,02,20,12,20,9.10
2009,02,20,12,21,9.20
2009,02,20,12,22,9.20
2009,02,20,12,23,9.20
2009,02,20,12,24,9.20
2009,02,20,12,25,9.20
2009,02,20,12,26,9.20
2009,02,20,12,27,9.20
2009,02,20,12,28,9.10
2009,02,20,12,29,9.10
2009,02,20,12,30,9.00
2009,02,20,12,31,9.00
2009,02,20,12,32,9.00
2009,02,20,12,33,9.00
2009,02,20,12,34,9.10
2009,02,20,12,35,9.20
2009,02,20,12,36,9.20
2009,02,20,12,37,9.20
2009,02,20,12,38,9.20
2009,02,20,12,39,9.30
2009,02,20,12,40,9.30
2009,02,20,12,41,9.20
2009,02,20,12,42,9.30
2009,02,20,12,43,9.30
2009,02,20,12,44,9.30
2009,02,20,12,45,9.30
2009,02,20,12,46,9.30
2009,02,20,12,47,9.30
2009,02,20,12,48,9.40
2009,02,20,12,49,9.50
2009,02,20,12,50,9.60
2009,02,20,12,51,9.70
2009,02,20,12,52,9.70
2009,02,20,12,53,9.80
2009,02,20,12,54,9.70
2009,02,20,12,55,9.60
2009,02,20,12,56,9.60
2009,02,20,12,57,9.60
2009,02,20,12,58,9.60
2009,02,20,12,59,9.60
2009,02,20,13,00,9.60
2009,02,20,13,01,9.50
2009,02,20,13,02,9.50
2009,02,20,13,03,9.60
2009,02,20,13,04,9.60
2009,02,20,13,05,9.50
2009,02,20,13,06,9.50
2009,02,20,13,07,9.40
2009,02,20,13,08,9.40
2009,02,20,13,09,9.50
2009,02,20,13,10,9.50
2009,02,20,13,11,9.60
2009,02,20,13,12,9.60
2009,02,20,13,13,9.70
2009,02,20,13,14,9.70
2009,02,20,13,15,9.70
2009,02,20,13,16,9.70
2009,02,20,13,17,9.80
2009,02,20,13,18,9.80
2009,02,20,13,19,9.90
2009,02,20,13,20,9.90
2009,02,20,13,21,9.80
2009,02,20,13,22,9.90
2009,02,20,13,23,9.90
2009,02,20,13,24,10.00
2009,02,20,13,25,10.10
2009,02,20,13,26,10.00
2009,02,20,13,27,9.90
2009,02,20,13,28,9.90
2009,02,20,13,29,9.90
2009,02,20,13,30,9.90
2009,02,20,13,31,9.90
2009,02,20,13,32,9.90
2009,02,20,13,33,9.90
2009,02,20,13,34,10.10
2009,02,20,13,35,10.20
2009,02,20,13,36,10.30
2009,02,20,13,37,10.30
2009,02,20,13,38,10.30
2009,02,20,13,39,10.30
2009,02,20,13,40,10.20
2009,02,20,13,41,10.10
2009,02,20,13,42,10.10
2009,02,20,13,43,10.10
2009,02,20,13,44,10.00
2009,02,20,13,45,9.90
2009,02,20,13,46,9.90
2009,02,20,13,47,9.90
2009,02,20,13,48,9.90
2009,02,20,13,49,10.00
2009,02,20,13,50,10.10
2009,02,20,13,51,10.20
2009,02,20,13,52,10.20
2009,02,20,13,53,10.30
2009,02,20,13,54,10.40
2009,02,20,13,55,10.40
2009,02,20,13,56,10.40
2009,02,20,13,57,10.40
2009,02,20,13,58,10.40
2009,02,20,13,59,10.40
2009,02,20,14,00,10.40
2009,02,20,14,01,10.40
2009,02,20,14,02,10.40
2009,02,20,14,03,10.40
2009,02,20,14,04,10.30
2009,02,20,14,05,10.20
2009,02,20,14,06,10.20
2009,02,20,14,07,10.30
2009,02,20,14,08,10.20
2009,02,20,14,09,10.20
2009,02,20,14,10,10.20
2009,02,20,14,11,10.10
2009,02,20,14,12,10.10
2009,02,20,14,13,10.10
2009,02,20,14,14,10.00
2009,02,20,14,15,10.00
2009,02,20,14,16,10.10
2009,02,20,14,17,10.10
2009,02,20,14,18,10.20
2009,02,20,14,19,10.20
2009,02,20,14,20,10.20
2009,02,20,14,21,10.20
2009,02,20,14,22,10.20
2009,02,20,14,23,10.10
2009,02,20,14,24,10.00
2009,02,20,14,25,9.90
2009,02,20,14,26,9.80
2009,02,20,14,27,9.70
2009,02,20,14,28,9.70
2009,02,20,14,29,9.70
2009,02,20,14,30,9.80
2009,02,20,14,31,9.80
2009,02,20,14,32,9.70
2009,02,20,14,33,9.70
2009,02,20,14,34,9.70
2009,02,20,14,35,9.80
2009,02,20,14,36,9.90
2009,02,20,14,37,9.90
2009,02,20,14,38,10.00
2009,02,20,14,39,10.10
2009,02,20,14,40,10.30
2009,02,20,14,41,10.40
2009,02,20,14,42,10.50
2009,02,20,14,43,10.60
2009,02,20,14,44,10.50
2009,02,20,14,45,10.40
2009,02,20,14,46,10.40
2009,02,20,14,47,10.40
2009,02,20,14,48,10.40
2009,02,20,14,49,10.40
2009,02,20,14,50,10.40
2009,02,20,14,51,10.30
2009,02,20,14,52,10.20
2009,02,20,14,53,10.10
2009,02,20,14,54,10.10
2009,02,20,14,55,10.20
2009,02,20,14,56,10.30
2009,02,20,14,57,10.30
2009,02,20,14,58,10.30
2009,02,20,14,59,10.30
2009,02,20,15,00,10.30
2009,02,20,15,01,10.30
2009,02,20,15,02,10.30
2009,02,20,15,03,10.30
2009,02,20,15,04,10.40
2009,02,20,15,05,10.40
2009,02,20,15,06,10.30
2009,02,20,15,07,10.20
2009,02,20,15,08,10.20
2009,02,20,15,09,10.30
2009,02,20,15,10,10.30
2009,02,20,15,11,10.30
2009,02,20,15,12,10.40
2009,02,20,15,13,10.40
2009,02,20,15,14,10.40
2009,02,20,15,15,10.40
2009,02,20,15,16,10.40
2009,02,20,15,17,10.40
2009,02,20,15,18,10.40
2009,02,20,15,19,10.40
2009,02,20,15,20,10.50
2009,02,20,15,21,10.40
2009,02,20,15,22,10.40
2009,02,20,15,23,10.40
2009,02,20,15,24,10.40
2009,02,20,15,25,10.40
2009,02,20,15,26,10.40
2009,02,20,15,27,10.60
2009,02,20,15,28,10.60
2009,02,20,15,29,10.60
2009,02,20,15,30,10.60
2009,02,20,15,31,10.60
2009,02,20,15,32,10.60
2009,02,20,15,33,10.60
2009,02,20,15,34,10.70
2009,02,20,15,35,10.70
2009,02,20,15,36,10.70
2009,02,20,15,37,10.60
2009,02,20,15,38,10.70
2009,02,20,15,39,10.70
2009,02,20,15,40,10.80
2009,02,20,15,41,10.80
2009,02,20,15,42,10.80
2009,02,20,15,43,10.90
2009,02,20,15,44,10.80
2009,02,20,15,45,10.80
2009,02,20,15,46,10.70
2009,02,20,15,47,10.60
2009,02,20,15,48,10.60
2009,02,20,15,49,10.60
2009,02,20,15,50,10.60
2009,02,20,15,51,10.70
2009,02,20,15,52,10.70
2009,02,20,15,53,10.70
2009,02,20,15,54,10.70
2009,02,20,15,55,10.60
2009,02,20,15,56,10.70
2009,02,20,15,57,10.70
2009,02,20,15,58,10.70
2009,02,20,15,59,10.70
2009,02,20,16,00,10.70
2009,02,20,16,01,10.60
2009,02,20,16,02,10.60
2009,02,20,16,03,10.60
2009,02,20,16,04,10.50
2009,02,20,16,05,10.40
2009,02,20,16,06,10.40
2009,02,20,16,07,10.40
2009,02,20,16,08,10.40
2009,02,20,16,09,10.40
2009,02,20,16,10,10.40
2009,02,20,16,11,10.60
2009,02,20,16,12,10.60
2009,02,20,16,13,10.60
2009,02,20,16,14,10.60
2009,02,20,16,15,10.60
2009,02,20,16,16,10.50
2009,02,20,16,17,10.40
2009,02,20,16,18,10.50
2009,02,20,16,19,10.60
2009,02,20,16,20,10.60
2009,02,20,16,21,10.60
2009,02,20,16,22,10.50
2009,02,20,16,23,10.40
2009,02,20,16,24,10.30
2009,02,20,16,25,10.20
2009,02,20,16,26,10.00
2009,02,20,16,27,9.90
2009,02,20,16,28,9.80
2009,02,20,16,29,9.70
2009,02,20,16,30,9.50
2009,02,20,16,31,9.50
2009,02,20,16,32,9.40
2009,02,20,16,33,9.30
2009,02,20,16,34,9.30
2009,02,20,16,35,9.20
2009,02,20,16,36,9.20
2009,02,20,16,37,9.20
2009,02,20,16,38,9.10
2009,02,20,16,39,9.10
2009,02,20,16,40,9.00
2009,02,20,16,41,8.90
2009,02,20,16,42,8.90
2009,02,20,16,43,8.80
2009,02,20,16,44,8.70
2009,02,20,16,45,8.70
2009,02,20,16,46,8.70
2009,02,20,16,47,8.70
2009,02,20,16,48,8.70
2009,02,20,16,49,8.70
2009,02,20,16,50,8.70
2009,02,20,16,51,8.60
2009,02,20,16,52,8.60
2009,02,20,16,53,8.50
2009,02,20,16,54,8.50
2009,02,20,16,55,8.40
2009,02,20,16,56,8.40
2009,02,20,16,57,8.30
2009,02,20,16,58,8.30
2009,02,20,16,59,8.20
2009,02,20,17,00,8.20
2009,02,20,17,01,8.10
2009,02,20,17,02,8.10
2009,02,20,17,03,8.10
2009,02,20,17,04,8.10
2009,02,20,17,05,8.10
2009,02,20,17,06,8.10
2009,02,20,17,07,8.10
2009,02,20,17,08,8.00
2009,02,20,17,09,8.00
2009,02,20,17,10,8.00
2009,02,20,17,11,8.00
2009,02,20,17,12,8.00
2009,02,20,17,13,7.90
2009,02,20,17,14,7.90
2009,02,20,17,15,7.90
2009,02,20,17,16,7.90
2009,02,20,17,17,7.80
2009,02,20,17,18,7.80
2009,02,20,17,19,7.80
2009,02,20,17,20,7.80
2009,02,20,17,21,7.80
2009,02,20,17,22,7.80
2009,02,20,17,23,7.80
2009,02,20,17,24,7.70
2009,02,20,17,25,7.70
2009,02,20,17,26,7.70
2009,02,20,17,27,7.70
2009,02,20,17,28,7.70
2009,02,20,17,29,7.60
2009,02,20,17,30,7.60
2009,02,20,17,31,7.60
2009,02,20,17,32,7.50
2009,02,20,17,33,7.50
2009,02,20,17,34,7.50
2009,02,20,17,35,7.40
2009,02,20,17,36,7.40
2009,02,20,17,37,7.40
2009,02,20,17,38,7.30
2009,02,20,17,39,7.30
2009,02,20,17,40,7.30
2009,02,20,17,41,7.30
2009,02,20,17,42,7.20
2009,02,20,17,43,7.20
2009,02,20,17,44,7.20
2009,02,20,17,45,7.10
2009,02,20,17,46,7.10
2009,02,20,17,47,7.00
2009,02,20,17,48,7.00
2009,02,20,17,49,6.90
2009,02,20,17,50,6.90
2009,02,20,17,51,6.80
2009,02,20,17,52,6.80
2009,02,20,17,53,6.80